Location: Aufkirchen
(47.9603°N, 11.3653°E)
Time: 07:32:55
(UTC+01:00)

Transit 4A - Pass Details

Date: 29 November 2020
Orbit: 864 x 981 km, 66.8° (Epoch: 16 January)

Event Time Altitude Azimuth Distance (km) Brightness Sun altitude
Rises 12:28:35 0° 304° (NW) 3,687 10.8 20.2°
Reaches altitude 10° 12:32:43 10° 329° (NNW) 2,742 10.0 20.1°
Maximum altitude 12:35:53 14° 359° (N) 2,466 9.6 20.1°
Drops below altitude 10° 12:39:02 10° 29° (NNE) 2,732 9.9 20.0°
Sets 12:43:09 0° 54° (NE) 3,665 10.6 19.9°
